Regional Weather Roundup
Issued by NWS

Home | Current Version | Previous Version | Graphics & Text | Print | Product List | Glossary On
Versions: 1 2 3 4 5 6 7 8 9 10 11 12 13 14 15 16 17 18 19 20 21 22 23 24 25 26 27 28 29 30 31 32 33 34 35 36 37 38 39 40 41 42 43 44 45 46 47 48 49 50
849
ASUS44 KMEG 010810
RWRTN
TENNESSEE HOURLY STATE WEATHER ROUNDUP
NATIONAL WEATHER SERVICE MEMPHIS TN
200 AM CST WED MAR 01 2017

TNZ002-004-019-021-049-052-054-088>092-010900-
WEST TENNESSEE

CITY           SKY/WX    TMP DP  RH WIND       PRES   REMARKS
MEMPHIS INTL   CLOUDY    72  65  78 S25G33    29.78F
NWS MEMPHIS      N/A     72 N/A N/A MISG        N/A
JACKSON        CLOUDY    70  64  81 S22G30    29.78F
UNION CITY     CLOUDY    70  70 100 S14       29.72F
PARIS          CLOUDY    68  61  77 SW20      29.77F
HUNTINGDON     CLOUDY    72  63  73 SW17G28   29.76F
$$

TNZ008-025-027-028-033-062-065-066-010900-
NORTH MIDDLE TENNESSEE

CITY           SKY/WX    TMP DP  RH WIND       PRES   REMARKS
NASHVILLE      CLOUDY    70  62  76 SW22G35   29.84F
PORTLAND       CLOUDY    68  63  83 S20G26    29.81F
CLARKSVILLE    CLOUDY    72  61  68 S22G41    29.75F
SMYRNA         CLOUDY    69  62  78 S13G22    29.86F
COOKEVILLE     CLOUDY    66  61  82 SW17G28   29.90F
GALLATIN       CLOUDY    70  63  78 S10G21    29.87S
CROSSVILLE     CLOUDY    62  58  86 S10G25    29.95F
$$

TNZ061-075-076-078-094-096-097-010900-
SOUTH MIDDLE TENNESSEE

CITY           SKY/WX    TMP DP  RH WIND       PRES   REMARKS
FAYETTEVILLE   CLOUDY    64  63  94 S12G18    29.96F
TULLAHOMA      CLOUDY    64  61  88 S13G29    29.96S
WINCHESTER     CLOUDY    66  61  82 SW13      29.96F
MCMINNVILLE    CLOUDY    66  63  88 S14       29.93S
COLUMBIA       CLEAR     68  68 100 S16       29.86F
SHELBYVILLE    MOCLDY    68  63  83 S18       29.92F
$$

TNZ017-018-042-046-047-010900-
NORTHEAST TENNESSEE

CITY           SKY/WX    TMP DP  RH WIND       PRES   REMARKS
TRI CITIES     CLOUDY    53  53 100 CALM      29.96F FOG
ELIZABETHTON   DRIZZLE   55  55 100 NW3       29.97F
$$

TNZ012-013-036-069-073-074-010900-
CENTRAL EAST TENNESSEE

CITY           SKY/WX    TMP DP  RH WIND       PRES   REMARKS
KNOXVILLE      CLOUDY    66  58  75 SW18      29.96F
OAK RIDGE      CLOUDY    59  57  93 W5        29.96F
DOWNTOWN KNOXV CLOUDY    54  54 100 CALM      29.97F FOG
GATLINBURG     CLOUDY    63  55  77 VRB5      29.95F
MORRISTOWN     CLOUDY    54  54 100 N3        29.96F FOG
JACKSBORO      CLOUDY    66  59  77 SW22G28   29.95F
$$

TNZ083-085-099-010900-
SOUTHEAST TENNESSEE

CITY           SKY/WX    TMP DP  RH WIND       PRES   REMARKS
CHATTANOOGA    MOCLDY    62  59  90 S7        30.00F
$$

SKY/WX REPORTED AS FAIR MEANS FEW OR NO CLOUDS BELOW
12 THOUSAND FEET.





USA.gov is the U.S. government's official web portal to all federal, state and local government web resources and services.